Location: Manning
(56.9235°N, 117.6289°W)
Time: 03:31:02
(UTC+00:00)

ISS - Visible Passes

Search period start: 27 November 2021 00:00
Search period end: 07 December 2021 00:00
Orbit: 417 x 423 km, 51.6° (Epoch: 27 November)

Date Brightness Start Highest point End Pass type
(mag) Time Alt. Az. Time Alt. Az. Time Alt. Az.
27 Nov -1.7 00:34:26 10° SSW 00:36:59 20° SSE 00:39:32 10° ESE visible
27 Nov -2.3 02:10:08 10° WSW 02:12:43 31° SSW 02:12:43 31° SSW visible
28 Nov -2.4 01:23:09 10° SW 01:26:12 31° S 01:27:25 24° SE visible
28 Nov -0.8 02:59:31 10° WSW 03:00:24 16° WSW 03:00:24 16° WSW visible
29 Nov -2.1 00:36:13 10° SW 00:39:09 28° SSE 00:42:06 10° ESE visible
29 Nov -2.3 02:12:25 10° WSW 02:15:05 31° SSW 02:15:05 31° SSW visible
30 Nov -2.4 01:25:19 10° WSW 01:28:26 33° S 01:29:47 24° SE visible
30 Nov -0.7 03:02:00 10° WSW 03:02:46 14° WSW 03:02:46 14° WSW visible
01 Dec -2.3 00:38:14 10° WSW 00:41:20 33° S 00:44:26 10° ESE visible
01 Dec -2.0 02:14:46 10° WSW 02:17:29 26° SSW 02:17:29 26° SSW visible
02 Dec -2.1 01:27:34 10° WSW 01:30:35 30° S 01:32:15 19° SE visible
02 Dec -0.5 03:04:47 10° WSW 03:05:14 12° WSW 03:05:14 12° WSW visible
03 Dec -2.2 00:40:23 10° WSW 00:43:28 32° S 00:46:34 10° ESE visible
03 Dec -1.4 02:17:16 10° WSW 02:19:42 18° SSW 02:20:03 18° SSW visible
04 Dec -1.5 01:29:54 10° WSW 01:32:37 22° SSW 01:34:58 12° SSE visible
05 Dec -1.7 00:42:36 10° WSW 00:45:30 26° SSW 00:48:25 10° SE visible
05 Dec -0.7 02:20:37 10° SW 02:21:32 11° SW 02:22:25 10° SSW visible
05 Dec -1.8 23:55:21 10° WSW 23:58:21 30° SSW 00:01:22 10° SE visible
06 Dec -0.8 01:32:34 10° WSW 01:34:29 14° SSW 01:36:23 10° S visible
